• In Uzbekistan
  • List of Countries
  • For 7 days
  • Water Temperature
  • Satellite Maps
  • Weather Map
  • Weather Widgets
  • user-avatar
    Login

    Hourly Weather Dubai

    Today, 21 August, Monday

    Time Temperature Precipitation Wind Pressure Humidity
    00:00 +39°C° 0 mm 3 mps 748 mmHg 33%
    01:00 +39°C° 0 mm 3 mps 748 mmHg 34%
    02:00 +38°C° 0 mm 3 mps 748 mmHg 35%
    03:00 +38°C° 0 mm 3 mps 748 mmHg 36%
    04:00 +37°C° 0 mm 3 mps 748 mmHg 38%
    05:00 +37°C° 0 mm 3 mps 749 mmHg 38%
    06:00 +37°C° 0 mm 3 mps 749 mmHg 38%
    07:00 +37°C° 0 mm 3 mps 749 mmHg 38%
    08:00 +39°C° 0 mm 3 mps 749 mmHg 36%
    09:00 +40°C° 0 mm 3 mps 749 mmHg 33%
    10:00 +42°C° 0 mm 3 mps 749 mmHg 31%
    11:00 +43°C° 0 mm 3 mps 749 mmHg 29%
    12:00 +44°C° 0 mm 3 mps 749 mmHg 27%
    13:00 +45°C° 0 mm 3 mps 748 mmHg 25%
    14:00 +45°C° 0 mm 3 mps 748 mmHg 26%
    15:00 +45°C° 0 mm 4 mps 748 mmHg 28%
    16:00 +46°C° 0 mm 5 mps 747 mmHg 30%
    17:00 +43°C° 0 mm 5 mps 747 mmHg 33%
    18:00 +42°C° 0 mm 4 mps 747 mmHg 36%
    19:00 +41°C° 0 mm 4 mps 747 mmHg 39%
    20:00 +40°C° 0 mm 3 mps 747 mmHg 38%
    21:00 +39°C° 0 mm 3 mps 747 mmHg 38%
    22:00 +39°C° 0 mm 3 mps 747 mmHg 37%
    23:00 +39°C° 0 mm 3 mps 747 mmHg 35%

    Tomorrow, 22 August, Tuesday

    Time Temperature Precipitation Wind Pressure Humidity
    00:00 +39°C° 0 mm 3 mps 747 mmHg 33%
    01:00 +39°C° 0 mm 3 mps 747 mmHg 31%
    02:00 +38°C° 0 mm 3 mps 747 mmHg 32%
    03:00 +38°C° 0 mm 3 mps 747 mmHg 34%
    04:00 +37°C° 0 mm 3 mps 747 mmHg 36%
    05:00 +37°C° 0 mm 3 mps 747 mmHg 35%
    06:00 +37°C° 0 mm 3 mps 748 mmHg 35%
    07:00 +37°C° 0 mm 3 mps 748 mmHg 34%
    08:00 +39°C° 0 mm 3 mps 748 mmHg 31%
    09:00 +42°C° 0 mm 4 mps 749 mmHg 28%
    10:00 +43°C° 0 mm 4 mps 749 mmHg 25%
    11:00 +44°C° 0 mm 4 mps 748 mmHg 24%
    12:00 +45°C° 0 mm 3 mps 748 mmHg 22%
    13:00 +47°C° 0 mm 3 mps 748 mmHg 20%
    14:00 +47°C° 0 mm 4 mps 747 mmHg 23%
    15:00 +47°C° 0 mm 5 mps 747 mmHg 25%
    16:00 +46°C° 0 mm 6 mps 746 mmHg 27%
    17:00 +45°C° 0 mm 5 mps 746 mmHg 30%
    18:00 +42°C° 0 mm 5 mps 746 mmHg 32%
    19:00 +41°C° 0 mm 4 mps 746 mmHg 35%
    20:00 +40°C° 0 mm 4 mps 747 mmHg 35%
    21:00 +39°C° 0 mm 3 mps 747 mmHg 35%
    22:00 +39°C° 0 mm 3 mps 747 mmHg 34%
    23:00 +39°C° 0 mm 3 mps 747 mmHg 31%

    Day after tomorrow, 23 August, Wednesday

    Time Temperature Precipitation Wind Pressure Humidity
    00:00 +39°C° 0 mm 3 mps 747 mmHg 28%
    01:00 +39°C° 0 mm 3 mps 747 mmHg 25%
    02:00 +38°C° 0 mm 3 mps 747 mmHg 26%
    03:00 +38°C° 0 mm 3 mps 747 mmHg 26%
    04:00 +37°C° 0 mm 3 mps 747 mmHg 27%
    05:00 +38°C° 0 mm 3 mps 747 mmHg 28%
    06:00 +38°C° 0 mm 3 mps 748 mmHg 30%
    07:00 +38°C° 0 mm 3 mps 748 mmHg 31%
    08:00 +39°C° 0 mm 3 mps 749 mmHg 30%
    09:00 +42°C° 0 mm 3 mps 749 mmHg 30%
    10:00 +43°C° 0 mm 3 mps 750 mmHg 29%
    11:00 +44°C° 0 mm 3 mps 749 mmHg 26%
    12:00 +45°C° 0 mm 3 mps 749 mmHg 24%
    13:00 +46°C° 0 mm 3 mps 749 mmHg 21%
    14:00 +47°C° 0 mm 4 mps 749 mmHg 22%
    15:00 +47°C° 0 mm 5 mps 748 mmHg 24%
    16:00 +46°C° 0 mm 5 mps 748 mmHg 25%
    17:00 +45°C° 0 mm 5 mps 748 mmHg 27%
    18:00 +43°C° 0 mm 4 mps 748 mmHg 29%
    19:00 +41°C° 0 mm 4 mps 748 mmHg 32%
    20:00 +41°C° 0 mm 4 mps 748 mmHg 31%
    21:00 +40°C° 0 mm 4 mps 749 mmHg 31%
    22:00 +38°C° 0 mm 3 mps 749 mmHg 30%
    23:00 +38°C° 0 mm 3 mps 749 mmHg 32%

    24 August, Thursday

    Time Temperature Precipitation Wind Pressure Humidity
    00:00 +37°C° 0 mm 3 mps 749 mmHg 34%
    01:00 +37°C° 0 mm 3 mps 749 mmHg 35%
    02:00 +36°C° 0 mm 3 mps 749 mmHg 36%
    03:00 +36°C° 0 mm 3 mps 749 mmHg 37%
    04:00 +36°C° 0 mm 3 mps 749 mmHg 38%
    05:00 +36°C° 0 mm 3 mps 749 mmHg 38%
    06:00 +36°C° 0 mm 3 mps 750 mmHg 39%
    07:00 +36°C° 0 mm 3 mps 750 mmHg 39%
    08:00 +38°C° 0 mm 3 mps 750 mmHg 37%
    09:00 +39°C° 0 mm 3 mps 751 mmHg 34%
    10:00 +42°C° 0 mm 3 mps 751 mmHg 32%
    11:00 +43°C° 0 mm 3 mps 751 mmHg 29%
    12:00 +44°C° 0 mm 3 mps 750 mmHg 27%
    13:00 +45°C° 0 mm 3 mps 750 mmHg 24%
    14:00 +45°C° 0 mm 4 mps 749 mmHg 25%
    15:00 +46°C° 0 mm 5 mps 749 mmHg 27%
    16:00 +45°C° 0 mm 5 mps 749 mmHg 28%
    17:00 +43°C° 0 mm 5 mps 749 mmHg 30%
    18:00 +42°C° 0 mm 4 mps 749 mmHg 31%
    19:00 +41°C° 0 mm 4 mps 749 mmHg 33%
    20:00 +40°C° 0 mm 4 mps 749 mmHg 35%
    21:00 +38°C° 0 mm 3 mps 749 mmHg 37%
    22:00 +38°C° 0 mm 3 mps 750 mmHg 39%
    23:00 +37°C° 0 mm 3 mps 749 mmHg 39%

    25 August, Friday

    Time Temperature Precipitation Wind Pressure Humidity
    00:00 +37°C° 0 mm 3 mps 749 mmHg 40%
    01:00 +36°C° 0 mm 3 mps 749 mmHg 41%
    02:00 +36°C° 0 mm 3 mps 749 mmHg 41%
    03:00 +36°C° 0 mm 3 mps 749 mmHg 41%
    04:00 +35°C° 0 mm 3 mps 749 mmHg 42%
    05:00 +36°C° 0 mm 3 mps 749 mmHg 41%
    06:00 +36°C° 0 mm 3 mps 750 mmHg 41%
    07:00 +36°C° 0 mm 3 mps 750 mmHg 40%
    08:00 +37°C° 0 mm 3 mps 750 mmHg 38%
    09:00 +39°C° 0 mm 3 mps 750 mmHg 36%
    10:00 +40°C° 0 mm 3 mps 751 mmHg 34%
    11:00 +42°C° 0 mm 3 mps 750 mmHg 32%
    12:00 +44°C° 0 mm 3 mps 750 mmHg 29%
    13:00 +45°C° 0 mm 3 mps 749 mmHg 26%
    14:00 +44°C° 0 mm 4 mps 749 mmHg 29%
    15:00 +45°C° 0 mm 5 mps 748 mmHg 31%
    16:00 +44°C° 0 mm 6 mps 748 mmHg 33%
    17:00 +42°C° 0 mm 5 mps 748 mmHg 37%
    18:00 +41°C° 0 mm 4 mps 748 mmHg 41%
    19:00 +38°C° 0 mm 4 mps 748 mmHg 45%
    20:00 +38°C° 0 mm 3 mps 748 mmHg 46%
    21:00 +37°C° 0 mm 2 mps 748 mmHg 48%
    22:00 +36°C° 0 mm 1 mps 748 mmHg 49%
    23:00 +37°C° 0 mm 2 mps 748 mmHg 47%

    26 August, Saturday

    Time Temperature Precipitation Wind Pressure Humidity
    00:00 +37°C° 0 mm 3 mps 748 mmHg 45%
    01:00 +37°C° 0 mm 3 mps 747 mmHg 42%
    02:00 +36°C° 0 mm 3 mps 747 mmHg 44%
    03:00 +36°C° 0 mm 3 mps 747 mmHg 45%
    04:00 +35°C° 0 mm 3 mps 747 mmHg 47%
    05:00 +36°C° 0 mm 3 mps 748 mmHg 44%
    06:00 +36°C° 0 mm 2 mps 748 mmHg 40%
    07:00 +37°C° 0 mm 2 mps 749 mmHg 37%
    08:00 +38°C° 0 mm 3 mps 749 mmHg 32%
    09:00 +40°C° 0 mm 3 mps 749 mmHg 28%
    10:00 +43°C° 0 mm 3 mps 749 mmHg 24%
    11:00 +44°C° 0 mm 3 mps 749 mmHg 22%
    12:00 +45°C° 0 mm 4 mps 748 mmHg 20%
    13:00 +47°C° 0 mm 4 mps 748 mmHg 18%
    14:00 +45°C° 0 mm 4 mps 748 mmHg 20%
    15:00 +46°C° 0 mm 5 mps 747 mmHg 22%
    16:00 +45°C° 0 mm 5 mps 747 mmHg 24%
    17:00 +43°C° 0 mm 5 mps 747 mmHg 26%
    18:00 +42°C° 0 mm 4 mps 747 mmHg 27%
    19:00 +40°C° 0 mm 3 mps 747 mmHg 29%
    20:00 +39°C° 0 mm 3 mps 747 mmHg 29%
    21:00 +39°C° 0 mm 2 mps 747 mmHg 28%
    22:00 +37°C° 0 mm 1 mps 748 mmHg 28%
    23:00 +38°C° 0 mm 2 mps 747 mmHg 26%
    Show more